Branson, MO

2:00 AM CDT on May 27, 2017 (GMT -0500)
Branson

Weather History for KBBG - May, 2013

Change the Weather History Date:

Monday, May 13, 2013

  Actual Average (KHRO) Record (KHRO)
Temperature  
Mean Temperature 63 °F -  
Max Temperature 78 °F 75 °F 92 °F (1949)
Min Temperature 48 °F 54 °F 32 °F (1910)
Degree Days  
Heating Degree Days 2    
Growing Degree Days 13 (Base 50)    
Moisture  
Dew Point 44 °F    
Average Humidity 60    
Maximum Humidity 87    
Minimum Humidity 29    
Precipitation  
Precipitation 0.00 in - - ()
Sea Level Pressure  
Sea Level Pressure 30.16 in    
Wind  
Wind Speed 2 mph (South)    
Max Wind Speed 13 mph    
Max Gust Speed 20 mph    
Visibility 10 miles    
Events      
Averages and records for this station are not official NWS values.
T = Trace of Precipitation, MM = Missing Value Source: NWS Daily Summary

Daily Weather History Graph

Daily Weather History Graph

Search for Another Location

Airport or City:

Trip Planner

Search our weather history database for the weather conditions in past years. The results will help you decide how hot, cold, wet, or windy it might be!

Date:

Astronomy

May. 13, 2013 Rise Set
Actual Time 6:07 AM CDT 8:11 PM CDT
Civil Twilight 5:38 AM CDT 8:40 PM CDT
Nautical Twilight 5:03 AM CDT 9:15 PM CDT
Astronomical Twilight 4:26 AM CDT 9:53 PM CDT
Moon 8:54 AM CDT (5/13) 11:21 PM CDT (5/13)
Length of Visible Light 15h 01m
Length of Day
14h 04m
Waxing Crescent, 12% of the Moon is Illuminated
May 13
Waxing Crescent
May 17
First Quarter
May 24
Full
May 31
Last Quarter
Jun 8
New

Hourly Weather History & Observations

Time (CDT) Temp. Dew Point Humidity Pressure Visibility Wind Dir Wind Speed Gust Speed Precip Events Conditions
12:15 AM 50.0 °F 42.8 °F 76% 30.20 in 10.0 mi Calm Calm - N/A   Scattered Clouds
12:35 AM 50.0 °F 44.6 °F 82% 30.20 in 10.0 mi Calm Calm - N/A   Partly Cloudy
12:55 AM 48.2 °F 41.0 °F 76% 30.20 in 10.0 mi Calm Calm - N/A   Partly Cloudy
1:15 AM 48.2 °F 42.8 °F 82% 30.20 in 10.0 mi Calm Calm - N/A   Partly Cloudy
1:35 AM 48.2 °F 42.8 °F 82% 30.20 in 10.0 mi Calm Calm - N/A   Mostly Cloudy
1:55 AM 48.2 °F 44.6 °F 87% 30.19 in 10.0 mi Calm Calm - N/A   Mostly Cloudy
2:15 AM 48.2 °F 42.8 °F 82% 30.19 in 10.0 mi Calm Calm - N/A   Overcast
2:35 AM 48.2 °F 42.8 °F 82% 30.19 in 10.0 mi Calm Calm - N/A   Overcast
2:55 AM 50.0 °F 41.0 °F 71% 30.19 in 10.0 mi Calm Calm - N/A   Overcast
3:15 AM 50.0 °F 44.6 °F 82% 30.19 in 10.0 mi Calm Calm - N/A   Overcast
3:35 AM 50.0 °F 41.0 °F 71% 30.19 in 10.0 mi Calm Calm - N/A   Overcast
3:55 AM 50.0 °F 39.2 °F 66% 30.19 in 10.0 mi Calm Calm - N/A   Mostly Cloudy
4:15 AM 50.0 °F 37.4 °F 62% 30.20 in 10.0 mi South 4.6 mph - N/A   Mostly Cloudy
4:35 AM 50.0 °F 37.4 °F 62% 30.20 in 10.0 mi Calm Calm - N/A   Mostly Cloudy
4:55 AM 50.0 °F 37.4 °F 62% 30.21 in 10.0 mi SE 3.5 mph - N/A   Scattered Clouds
5:15 AM 48.2 °F 39.2 °F 71% 30.20 in 10.0 mi Calm Calm - N/A   Mostly Cloudy
5:35 AM 50.0 °F 37.4 °F 62% 30.20 in 10.0 mi Calm Calm - N/A   Partly Cloudy
5:55 AM 48.2 °F 39.2 °F 71% 30.21 in 10.0 mi Calm Calm - N/A   Clear
6:15 AM 48.2 °F 39.2 °F 71% 30.21 in 10.0 mi Calm Calm - N/A   Scattered Clouds
6:35 AM 48.2 °F 37.4 °F 66% 30.21 in 10.0 mi Calm Calm - N/A   Clear
6:48 AM 48.2 °F 39.2 °F 71% 30.21 in 10.0 mi ESE 5.8 mph - N/A   Scattered Clouds
7:55 AM 51.8 °F 41.0 °F 67% 30.22 in 10.0 mi ESE 8.1 mph - N/A   Mostly Cloudy
8:49 AM 57.2 °F 41.0 °F 55% 30.21 in 10.0 mi SE 10.4 mph - N/A   Scattered Clouds
10:53 AM 66.2 °F 41.0 °F 40% 30.19 in 10.0 mi SE 11.5 mph - N/A   Partly Cloudy
11:50 AM 68.0 °F 44.6 °F 43% 30.18 in 10.0 mi SSE 11.5 mph - N/A   Partly Cloudy
12:45 PM 71.6 °F 46.4 °F 41% 30.15 in 10.0 mi ESE 9.2 mph - N/A   Clear
1:46 PM 77.0 °F 42.8 °F 29% 30.13 in 10.0 mi SSW 9.2 mph 17.3 mph N/A   Clear
3:50 PM 78.8 °F 46.4 °F 32% 30.11 in 10.0 mi SW 12.7 mph - N/A   Clear
4:55 PM 77.0 °F 48.2 °F 36% 30.09 in 10.0 mi SW 9.2 mph 19.6 mph N/A   Clear
5:50 PM 77.0 °F 48.2 °F 36% 30.09 in 10.0 mi SW 5.8 mph - N/A   Clear
6:55 PM 77.0 °F 50.0 °F 39% 30.08 in 10.0 mi SSW 5.8 mph - N/A   Partly Cloudy
7:45 PM 73.4 °F 50.0 °F 44% 30.08 in 10.0 mi SSW 4.6 mph - N/A   Partly Cloudy
8:45 PM 69.8 °F 51.8 °F 53% 30.08 in 10.0 mi WNW 6.9 mph - N/A   Partly Cloudy
9:15 PM 68.0 °F 51.8 °F 56% 30.09 in 10.0 mi Calm Calm - N/A   Clear
9:35 PM 68.0 °F 51.8 °F 56% 30.09 in 10.0 mi Calm Calm - N/A   Clear
9:55 PM 69.8 °F 50.0 °F 49% 30.09 in 10.0 mi South 3.5 mph - N/A   Clear
10:15 PM 68.0 °F 50.0 °F 52% 30.09 in 10.0 mi South 3.5 mph - N/A   Clear
10:35 PM 68.0 °F 50.0 °F 52% 30.09 in 10.0 mi Calm Calm - N/A   Clear
10:55 PM 68.0 °F 50.0 °F 52% 30.09 in 10.0 mi Calm Calm - N/A   Clear
11:15 PM 68.0 °F 50.0 °F 52% 30.08 in 10.0 mi Calm Calm - N/A   Clear
11:35 PM 66.2 °F 50.0 °F 56% 30.08 in 10.0 mi Calm Calm - N/A   Clear
11:55 PM 66.2 °F 50.0 °F 56% 30.07 in 10.0 mi South 3.5 mph - N/A   Clear